UAL1411 KATL-KMCO

Flight info

Callsign UAL1411
Flight time N/A
Altitude 39000
Route SMLTZ3 WALET ZJAYX GRNCH5
Aircraft A20N/M-SDE2E3FGHIRWXY/LB1

Departure

Time 2026-05-03 22:57
Airport Hartsfield Jackson Atlanta International Airport (KATL)

Arrival

Time N/A
Airport Orlando International Airport (KMCO)
Time Latitude Longitude Altitude Speed Heading
2026-05-03 22:42 33.63833 -84.42511 1006 ft 0 kts 269°
2026-05-03 22:48 33.63834 -84.42492 1006 ft 3 kts 252°
2026-05-03 22:48 33.63841 -84.42472 1006 ft 2 kts 229°
2026-05-03 22:48 33.63854 -84.42457 1006 ft 3 kts 217°
2026-05-03 22:49 33.63872 -84.42444 1006 ft 3 kts 207°
2026-05-03 22:49 33.63894 -84.42429 1006 ft 6 kts 216°
2026-05-03 22:49 33.63913 -84.42410 1006 ft 0 kts 213°
2026-05-03 22:51 33.63910 -84.42413 1006 ft 2 kts 210°
2026-05-03 22:52 33.63882 -84.42417 1006 ft 6 kts 182°
2026-05-03 22:52 33.63826 -84.42417 1006 ft 10 kts 178°
2026-05-03 22:52 33.63742 -84.42414 1006 ft 14 kts 179°
2026-05-03 22:52 33.63655 -84.42375 1006 ft 13 kts 116°
2026-05-03 22:53 33.63655 -84.42251 1006 ft 17 kts 88°
2026-05-03 22:53 33.63657 -84.42097 1006 ft 20 kts 89°
2026-05-03 22:53 33.63659 -84.41914 1006 ft 23 kts 89°
2026-05-03 22:53 33.63656 -84.41706 1006 ft 26 kts 91°
2026-05-03 22:54 33.63656 -84.41475 1005 ft 29 kts 88°
2026-05-03 22:54 33.63655 -84.41223 1006 ft 31 kts 90°
2026-05-03 22:54 33.63656 -84.40978 1006 ft 28 kts 89°
2026-05-03 22:54 33.63566 -84.40910 1006 ft 15 kts 181°
2026-05-03 22:55 33.63476 -84.40929 1007 ft 0 kts 233°
2026-05-03 22:55 33.63471 -84.40941 1007 ft 3 kts 254°
2026-05-03 22:55 33.63472 -84.40947 1007 ft 0 kts 270°
2026-05-03 22:56 33.63472 -84.41046 1006 ft 41 kts 270°
2026-05-03 22:56 33.63477 -84.41689 1005 ft 109 kts 270°
2026-05-03 22:56 33.63478 -84.42812 1013 ft 157 kts 270°
2026-05-03 22:56 33.63459 -84.44208 1336 ft 177 kts 269°
2026-05-03 22:57 33.63419 -84.45705 2013 ft 181 kts 269°
2026-05-03 22:57 33.63354 -84.47267 2710 ft 188 kts 270°
2026-05-03 22:57 33.63355 -84.48869 3406 ft 204 kts 272°
2026-05-03 22:57 33.63395 -84.50667 4004 ft 227 kts 272°
2026-05-03 22:58 33.63432 -84.52663 4701 ft 249 kts 271°
2026-05-03 22:58 33.63449 -84.54797 5648 ft 259 kts 271°
2026-05-03 22:58 33.63454 -84.56975 6732 ft 265 kts 272°
2026-05-03 22:58 33.63456 -84.59212 7769 ft 270 kts 271°
2026-05-03 22:59 33.63456 -84.61476 8876 ft 273 kts 271°
2026-05-03 22:59 33.63366 -84.63742 9972 ft 278 kts 260°
2026-05-03 22:59 33.62567 -84.65911 10970 ft 287 kts 235°
2026-05-03 22:59 33.61071 -84.67483 11913 ft 297 kts 214°
2026-05-03 23:00 33.59253 -84.68715 12904 ft 302 kts 208°
2026-05-03 23:00 33.57215 -84.69444 13609 ft 311 kts 189°
2026-05-03 23:00 33.55037 -84.69340 13899 ft 316 kts 173°
2026-05-03 23:00 33.52859 -84.68891 14001 ft 317 kts 173°
2026-05-03 23:01 33.50680 -84.68445 14007 ft 317 kts 173°
2026-05-03 23:01 33.48505 -84.68013 14006 ft 317 kts 173°
2026-05-03 23:01 33.46325 -84.67594 14009 ft 317 kts 173°
2026-05-03 23:01 33.44135 -84.67171 14248 ft 321 kts 171°
2026-05-03 23:02 33.42022 -84.66266 15059 ft 325 kts 153°
2026-05-03 23:02 33.40207 -84.64675 15945 ft 331 kts 137°
2026-05-03 23:02 33.38528 -84.62698 16437 ft 350 kts 137°
2026-05-03 23:02 33.36727 -84.60562 16673 ft 374 kts 137°
2026-05-03 23:03 33.34836 -84.58317 17086 ft 389 kts 137°
2026-05-03 23:03 33.32905 -84.56029 17876 ft 393 kts 137°
2026-05-03 23:03 33.30949 -84.53714 18640 ft 397 kts 137°
2026-05-03 23:03 33.28972 -84.51380 19325 ft 401 kts 137°
2026-05-03 23:04 33.26969 -84.49020 20022 ft 405 kts 137°
2026-05-03 23:04 33.24953 -84.46647 20709 ft 409 kts 137°
2026-05-03 23:04 33.22938 -84.44279 21375 ft 414 kts 137°
2026-05-03 23:04 33.20894 -84.41877 22049 ft 418 kts 137°
2026-05-03 23:05 33.18785 -84.39402 22720 ft 422 kts 137°
2026-05-03 23:05 33.16682 -84.36934 23390 ft 426 kts 137°
2026-05-03 23:05 33.14554 -84.34440 23977 ft 430 kts 137°
2026-05-03 23:05 33.12409 -84.31925 24538 ft 433 kts 137°
2026-05-03 23:06 33.10250 -84.29396 25090 ft 437 kts 138°
2026-05-03 23:06 33.08099 -84.26876 25612 ft 440 kts 138°
2026-05-03 23:06 33.05901 -84.24305 26129 ft 443 kts 139°
2026-05-03 23:06 33.03707 -84.21741 26652 ft 447 kts 139°
2026-05-03 23:07 33.01408 -84.19252 27141 ft 446 kts 146°
2026-05-03 23:07 32.98830 -84.17196 27643 ft 444 kts 155°
2026-05-03 23:07 32.96036 -84.15648 28123 ft 441 kts 165°
2026-05-03 23:07 32.93170 -84.14474 28590 ft 442 kts 166°
2026-05-03 23:08 32.90250 -84.13283 29054 ft 445 kts 166°
2026-05-03 23:08 32.87310 -84.12076 29503 ft 447 kts 166°
2026-05-03 23:08 32.84354 -84.10860 29936 ft 450 kts 166°
2026-05-03 23:08 32.81378 -84.09636 30344 ft 452 kts 166°
2026-05-03 23:09 32.78395 -84.08409 30745 ft 454 kts 166°
2026-05-03 23:09 32.75397 -84.07177 31146 ft 456 kts 167°
2026-05-03 23:09 32.72443 -84.05961 31635 ft 454 kts 168°
2026-05-03 23:09 32.69474 -84.04738 32216 ft 451 kts 168°
2026-05-03 23:10 32.66517 -84.03524 32736 ft 448 kts 168°
2026-05-03 23:10 32.63573 -84.02318 33258 ft 446 kts 168°
2026-05-03 23:10 32.60642 -84.01119 33764 ft 445 kts 169°
2026-05-03 23:10 32.57723 -83.99925 34249 ft 443 kts 169°
2026-05-03 23:11 32.54808 -83.98735 34603 ft 442 kts 169°
2026-05-03 23:11 32.51893 -83.97546 34934 ft 443 kts 169°
2026-05-03 23:11 32.49961 -83.96759 35161 ft 443 kts 169°
2026-05-03 23:11 32.46058 -83.95167 35571 ft 443 kts 169°
2026-05-03 23:12 32.44131 -83.94381 35792 ft 442 kts 169°
2026-05-03 23:12 32.41216 -83.93194 36096 ft 443 kts 169°
2026-05-03 23:12 32.37396 -83.91339 36473 ft 452 kts 162°
2026-05-03 23:12 32.35514 -83.90133 36701 ft 456 kts 158°
2026-05-03 23:13 32.32884 -83.88081 36996 ft 464 kts 152°
2026-05-03 23:13 32.30298 -83.85770 37269 ft 466 kts 152°
2026-05-03 23:13 32.27713 -83.83463 37535 ft 466 kts 152°
2026-05-03 23:13 32.25113 -83.81151 37802 ft 466 kts 152°
2026-05-03 23:14 32.22521 -83.78854 38056 ft 466 kts 152°
2026-05-03 23:14 32.19921 -83.76553 38301 ft 467 kts 152°
2026-05-03 23:14 32.17326 -83.74256 38481 ft 467 kts 153°
2026-05-03 23:14 32.14716 -83.71951 38711 ft 467 kts 153°
2026-05-03 23:15 32.12106 -83.69648 38919 ft 468 kts 153°
2026-05-03 23:15 32.09503 -83.67352 39071 ft 468 kts 153°
2026-05-03 23:15 32.06891 -83.65050 39112 ft 467 kts 153°
2026-05-03 23:16 32.01709 -83.60486 39116 ft 466 kts 153°
2026-05-03 23:16 31.96500 -83.55908 39113 ft 467 kts 153°
2026-05-03 23:17 31.91316 -83.51355 39112 ft 466 kts 154°
2026-05-03 23:17 31.86104 -83.46786 39118 ft 467 kts 154°
2026-05-03 23:18 31.80906 -83.42239 39131 ft 469 kts 154°
2026-05-03 23:18 31.75684 -83.37671 39116 ft 466 kts 154°
2026-05-03 23:19 31.70477 -83.33127 39122 ft 466 kts 154°
2026-05-03 23:19 31.65243 -83.28601 39121 ft 463 kts 157°
2026-05-03 23:20 31.59788 -83.24916 39111 ft 448 kts 167°
2026-05-03 23:20 31.54144 -83.21785 39112 ft 448 kts 166°
2026-05-03 23:21 31.48509 -83.18638 39115 ft 448 kts 166°
2026-05-03 23:21 31.42866 -83.15483 39094 ft 448 kts 167°
2026-05-03 23:22 31.34503 -83.10813 39113 ft 446 kts 167°
2026-05-03 23:22 31.28913 -83.07697 39111 ft 444 kts 167°
2026-05-03 23:23 31.23329 -83.04593 39110 ft 445 kts 167°
2026-05-03 23:23 31.17734 -83.01484 39113 ft 445 kts 167°
2026-05-03 23:24 31.12144 -82.98382 39119 ft 444 kts 167°
2026-05-03 23:24 31.06553 -82.95284 39120 ft 445 kts 167°
2026-05-03 23:25 31.00975 -82.92193 39120 ft 443 kts 168°
2026-05-03 23:25 30.95432 -82.89130 39123 ft 443 kts 168°
2026-05-03 23:26 30.89892 -82.85898 39138 ft 452 kts 162°
2026-05-03 23:26 30.84638 -82.81618 39165 ft 467 kts 155°
2026-05-03 23:27 30.79518 -82.76950 39145 ft 465 kts 155°
2026-05-03 23:27 30.74425 -82.72336 39167 ft 463 kts 156°
2026-05-03 23:28 30.69318 -82.67740 39192 ft 464 kts 156°
2026-05-03 23:28 30.64246 -82.63177 39194 ft 463 kts 156°
2026-05-03 23:29 30.59147 -82.58594 39193 ft 463 kts 156°
2026-05-03 23:29 30.54042 -82.54012 39208 ft 463 kts 156°
2026-05-03 23:30 30.48935 -82.49435 39219 ft 463 kts 156°
2026-05-03 23:30 30.43856 -82.44889 39223 ft 463 kts 156°
2026-05-03 23:31 30.38912 -82.40469 39208 ft 463 kts 156°
2026-05-03 23:31 30.33835 -82.35930 39230 ft 459 kts 156°
2026-05-03 23:32 30.28760 -82.31411 39228 ft 461 kts 156°
2026-05-03 23:32 30.23645 -82.26977 39212 ft 451 kts 162°
2026-05-03 23:33 30.20958 -82.25193 39195 ft 438 kts 168°
2026-05-03 23:33 30.18198 -82.23812 39187 ft 426 kts 174°
2026-05-03 23:33 30.15410 -82.22816 39151 ft 412 kts 181°
2026-05-03 23:33 30.12637 -82.22174 39177 ft 402 kts 185°
2026-05-03 23:34 30.07095 -82.21108 39181 ft 404 kts 184°
2026-05-03 23:34 30.01581 -82.20022 39161 ft 404 kts 184°
2026-05-03 23:35 29.96034 -82.18926 39149 ft 404 kts 184°
2026-05-03 23:35 29.90483 -82.17830 39127 ft 404 kts 184°
2026-05-03 23:36 29.84944 -82.16724 39119 ft 403 kts 184°
2026-05-03 23:36 29.79403 -82.15618 39112 ft 404 kts 184°
2026-05-03 23:37 29.73921 -82.14522 38854 ft 399 kts 184°
2026-05-03 23:37 29.71187 -82.13977 38267 ft 400 kts 184°
2026-05-03 23:37 29.68433 -82.13437 37481 ft 404 kts 184°
2026-05-03 23:38 29.65641 -82.12890 36711 ft 408 kts 184°
2026-05-03 23:38 29.62832 -82.12337 35976 ft 412 kts 183°
2026-05-03 23:38 29.59994 -82.11777 35255 ft 415 kts 182°
2026-05-03 23:38 29.57130 -82.11209 34498 ft 418 kts 182°
2026-05-03 23:39 29.54249 -82.10638 33759 ft 421 kts 182°
2026-05-03 23:39 29.51347 -82.10065 32979 ft 425 kts 181°
2026-05-03 23:39 29.48408 -82.09487 32211 ft 430 kts 181°
2026-05-03 23:39 29.45481 -82.08911 31474 ft 434 kts 180°
2026-05-03 23:40 29.42480 -82.08321 30743 ft 438 kts 180°
2026-05-03 23:40 29.39469 -82.07726 30009 ft 438 kts 179°
2026-05-03 23:40 29.36472 -82.07130 29184 ft 433 kts 179°
2026-05-03 23:40 29.33520 -82.06498 28197 ft 432 kts 175°
2026-05-03 23:41 29.30582 -82.05540 26556 ft 447 kts 168°
2026-05-03 23:41 29.27649 -82.04134 24559 ft 469 kts 161°
2026-05-03 23:41 29.24729 -82.02312 22621 ft 482 kts 157°
2026-05-03 23:41 29.21819 -82.00444 21320 ft 473 kts 157°
2026-05-03 23:42 29.18983 -81.98628 20156 ft 461 kts 157°
2026-05-03 23:42 29.16205 -81.96864 18964 ft 452 kts 157°
2026-05-03 23:42 29.13470 -81.95139 17699 ft 444 kts 157°
2026-05-03 23:42 29.10790 -81.93455 16454 ft 434 kts 158°
2026-05-03 23:43 29.08216 -81.91791 15234 ft 429 kts 154°
2026-05-03 23:43 29.05801 -81.89802 14058 ft 427 kts 146°
2026-05-03 23:43 29.03610 -81.87518 12788 ft 423 kts 142°
2026-05-03 23:43 29.01502 -81.85242 11949 ft 408 kts 141°
2026-05-03 23:44 28.99492 -81.83072 11466 ft 386 kts 141°
2026-05-03 23:44 28.97681 -81.80925 11200 ft 365 kts 134°
2026-05-03 23:44 28.96167 -81.78675 11036 ft 353 kts 131°
2026-05-03 23:44 28.94657 -81.76430 10864 ft 357 kts 131°
2026-05-03 23:45 28.93145 -81.74195 10704 ft 355 kts 131°
2026-05-03 23:45 28.91649 -81.71984 10551 ft 358 kts 131°
2026-05-03 23:45 28.90146 -81.69758 10384 ft 348 kts 131°
2026-05-03 23:45 28.88693 -81.67600 10216 ft 336 kts 131°
2026-05-03 23:46 28.87298 -81.65527 10033 ft 324 kts 131°
2026-05-03 23:46 28.85942 -81.63525 9854 ft 312 kts 131°
2026-05-03 23:46 28.84622 -81.61572 9677 ft 312 kts 130°
2026-05-03 23:46 28.83295 -81.59612 9492 ft 311 kts 130°
2026-05-03 23:47 28.81983 -81.57672 9312 ft 307 kts 130°
2026-05-03 23:47 28.80675 -81.55752 9111 ft 306 kts 133°
2026-05-03 23:47 28.79149 -81.54077 8735 ft 301 kts 146°
2026-05-03 23:47 28.77374 -81.52862 8362 ft 295 kts 156°
2026-05-03 23:48 28.75569 -81.51800 8096 ft 287 kts 155°
2026-05-03 23:48 28.73833 -81.50763 8000 ft 274 kts 155°
2026-05-03 23:48 28.72193 -81.49776 7984 ft 258 kts 155°
2026-05-03 23:48 28.70618 -81.48829 7988 ft 258 kts 155°
2026-05-03 23:49 28.69028 -81.47876 7989 ft 258 kts 155°
2026-05-03 23:49 28.67459 -81.46937 7987 ft 257 kts 155°
2026-05-03 23:49 28.65875 -81.45987 7989 ft 257 kts 155°
2026-05-03 23:49 28.64293 -81.45040 7989 ft 257 kts 155°
2026-05-03 23:50 28.62709 -81.44091 7988 ft 256 kts 155°
2026-05-03 23:50 28.61663 -81.43468 7989 ft 257 kts 156°